TimeEST,TemperatureF,Dew PointF,Humidity,Sea Level PressureIn,VisibilityMPH,Wind Direction,Wind SpeedMPH,Gust SpeedMPH,PrecipitationIn,Events,Conditions,WindDirDegrees,DateUTC
12:54 AM,-6.0,-13.0,72,29.87,10.0,WSW,15.0,21.9,N/A,,Partly Cloudy,240,2014-01-07 05:54:00
1:54 AM,-6.0,-14.1,68,29.87,10.0,SW,13.8,19.6,N/A,,Clear,230,2014-01-07 06:54:00
2:54 AM,-6.0,-14.1,68,29.87,10.0,SW,11.5,19.6,N/A,,Clear,230,2014-01-07 07:54:00
3:54 AM,-7.1,-14.1,72,29.87,10.0,SW,10.4,19.6,N/A,,Clear,230,2014-01-07 08:54:00
4:54 AM,-6.0,-13.0,72,29.87,10.0,SW,12.7,-,N/A,,Clear,230,2014-01-07 09:54:00
5:31 AM,-6.0,-13.0,72,29.82,8.0,SW,11.5,19.6,N/A,,Mostly Cloudy,220,2014-01-07 10:31:00
5:54 AM,-7.1,-13.0,75,29.88,9.0,SW,11.5,-,N/A,,Overcast,220,2014-01-07 10:54:00
6:54 AM,-7.1,-13.0,75,29.88,10.0,SW,12.7,-,N/A,,Overcast,230,2014-01-07 11:54:00
7:17 AM,-6.0,-11.9,75,29.83,9.0,SW,9.2,-,N/A,,Overcast,220,2014-01-07 12:17:00
7:54 AM,-6.0,-11.9,75,29.89,3.0,SW,13.8,20.7,0.00,Snow,Light Snow,230,2014-01-07 12:54:00
8:11 AM,-6.0,-11.0,79,29.83,4.0,SW,11.5,17.3,0.00,,Haze,230,2014-01-07 13:11:00
8:23 AM,-5.1,-11.0,76,29.83,3.0,SW,10.4,-,0.00,,Overcast,230,2014-01-07 13:23:00
8:54 AM,-4.0,-11.0,72,29.91,8.0,WSW,15.0,23.0,0.00,,Overcast,240,2014-01-07 13:54:00
9:54 AM,-2.0,-9.9,69,29.92,2.5,WSW,19.6,31.1,0.00,,Overcast,240,2014-01-07 14:54:00
10:08 AM,-0.9,-9.0,69,29.87,1.5,WSW,17.3,26.5,0.00,Snow,Light Snow,240,2014-01-07 15:08:00
10:29 AM,-0.0,-9.0,66,29.87,3.0,WSW,15.0,26.5,0.00,,Overcast,240,2014-01-07 15:29:00
10:54 AM,1.0,-8.0,66,29.94,8.0,WSW,13.8,24.2,0.00,,Overcast,240,2014-01-07 15:54:00
11:54 AM,3.0,-6.0,66,29.92,9.0,WSW,16.1,24.2,N/A,,Overcast,250,2014-01-07 16:54:00
12:54 PM,5.0,-4.0,66,29.91,7.0,WSW,15.0,23.0,N/A,,Overcast,240,2014-01-07 17:54:00
1:32 PM,6.1,-2.0,69,29.87,1.8,West,17.3,27.6,0.00,Snow,Light Snow,260,2014-01-07 18:32:00
1:43 PM,6.1,-0.0,76,29.87,0.8,West,13.8,23.0,0.00,Snow,Light Snow,260,2014-01-07 18:43:00
1:51 PM,6.8,-0.4,72,29.88,2.0,West,13.8,23.0,0.00,Snow,Light Snow,260,2014-01-07 18:51:00
1:54 PM,7.0,-0.0,73,29.94,3.0,West,8.1,23.0,0.00,Snow,Light Snow,270,2014-01-07 18:54:00
2:07 PM,8.1,-2.9,61,29.88,5.0,West,16.1,24.2,0.00,,Haze,270,2014-01-07 19:07:00
2:54 PM,7.0,-2.0,67,29.96,7.0,West,12.7,23.0,0.00,,Overcast,260,2014-01-07 19:54:00
3:54 PM,8.1,-2.0,64,30.00,10.0,West,13.8,24.2,N/A,,Overcast,260,2014-01-07 20:54:00
4:54 PM,7.0,-2.0,67,30.02,8.0,West,10.4,19.6,0.00,,Overcast,260,2014-01-07 21:54:00
5:54 PM,7.0,-2.0,67,30.05,10.0,WSW,10.4,-,0.00,,Overcast,240,2014-01-07 22:54:00
6:54 PM,6.1,-2.0,69,30.08,10.0,WSW,11.5,19.6,N/A,,Overcast,250,2014-01-07 23:54:00
7:54 PM,5.0,-2.9,70,30.10,10.0,WSW,10.4,-,N/A,,Overcast,240,2014-01-08 00:54:00
8:54 PM,5.0,-2.9,70,30.13,10.0,WSW,10.4,-,N/A,,Overcast,240,2014-01-08 01:54:00
9:54 PM,3.9,-2.9,73,30.15,10.0,WSW,8.1,-,N/A,,Overcast,240,2014-01-08 02:54:00
10:29 PM,3.9,-2.9,73,30.10,10.0,SW,6.9,-,N/A,,Mostly Cloudy,230,2014-01-08 03:29:00
10:54 PM,3.9,-2.9,73,30.16,10.0,SW,6.9,-,N/A,,Overcast,230,2014-01-08 03:54:00
11:54 PM,5.0,-2.0,73,30.17,10.0,SW,8.1,-,N/A,,Overcast,230,2014-01-08 04:54:00